[[{"header":{"parameterUnit":"m.s-1","parameterCategory":1,"la1":30.2992,"la2":30.254,"lo1":-89.0895,"lo2":-89.0443,"dy":0.0025,"dx":0.0025,"nx":19,"ny":19,"refTime":"2026-04-02T09:00:00:Z","depth":0,"parameterNumber":2,"parameterNumberName":"U-component_of_WINDS"},"data":[0,0,0,-5.1032,-5.1035,-5.1177,-5.1178,-5.1366,-5.1367,0,0,0,0,0,0,0,0,0,0,0,-5.0995,-5.0997,-5.1032,-5.1036,-5.1177,-5.1178,-5.1365,-5.1367,0,0,0,0,0,0,0,0,0,0,0,-5.0995,-5.0996,-5.0998,-5.1036,-5.1177,-5.1178,-5.1365,-5.1255,0,0,0,0,0,0,0,0,0,0,-5.1116,-5.1087,-5.0996,-5.0998,-5.1037,-5.1177,-5.1178,-5.125,-5.1262,-5.1305,0,-5.1344,0,-5.1359,-5.1381,-5.1381,0,0,0,-5.1032,-5.1077,-5.1111,-5.0998,-5.1039,-5.1177,-5.1112,-5.1257,-5.1271,-5.1321,-5.1347,-5.1354,-5.1362,-5.1382,-5.1383,-5.1642,-5.1643,0,0,-5.1024,-5.1023,-5.1102,-5.112,-5.11,-5.1108,-5.1117,-5.1265,-5.1293,-5.1348,-5.1358,-5.1365,-5.1383,-5.1385,-5.164,-5.1642,0,0,0,-5.1004,-5.1018,-5.1048,-5.1113,-5.1138,-5.1112,-5.1122,-5.1286,-5.1296,-5.136,-5.1368,-5.1384,-5.1387,-5.1639,-5.1641,-5.1707,0,0,0,-5.0999,-5.1006,-5.1045,-5.1046,-5.1135,-5.1214,-5.1141,-5.1286,-5.1303,-5.1367,-5.1384,-5.1389,-5.1637,-5.164,-5.1702,-5.1738,0,0,0,-5.0984,-5.1004,-5.1027,-5.1045,-5.1106,-5.1212,-5.123,-5.129,-5.1308,-5.1381,-5.1389,-5.1636,-5.1639,-5.1698,-5.173,-5.1804,0,0,0,-5.0968,-5.1084,-5.1028,-5.1161,-5.1105,-5.1253,-5.1229,-5.1339,-5.1411,-5.1385,-5.1637,-5.1641,-5.1696,-5.1726,-5.1799,-5.1864,-5.1891,0,0,-5.1114,-5.1102,-5.118,-5.1134,-5.1291,-5.1231,-5.1399,-5.1465,-5.1473,-5.1585,-5.1591,-5.1704,-5.173,-5.1803,-5.2052,-5.2074,0,0,0,-5.1226,-5.1282,-5.1324,-5.1393,-5.1447,-5.1495,-5.1536,-5.156,-5.1656,-5.153,-5.1752,-5.1768,-5.181,-5.1841,-5.186,-5.1895,-5.1656,-5.1655,-5.1655,-5.143,-5.1434,-5.1564,-5.1586,-5.1652,-5.1694,-5.1747,-5.1787,-5.1772,-5.1825,-5.1857,-5.2007,-5.2043,-5.2057,-5.2095,-5.1894,-5.1894,-5.1894,-5.1895,-5.1642,-5.1721,-5.17,-5.1817,-5.1821,-5.192,-5.1965,-5.1951,-5.2042,-5.1984,-5.2021,-5.1954,-5.2081,-5.2114,-5.19,-5.1899,-5.1898,-5.1898,-5.1897,-5.1773,-5.1812,-5.1841,-5.194,-5.2015,-5.2034,-5.2123,-5.2124,-5.2126,-5.2163,-5.2196,-5.2195,-5.2191,-5.218,-5.218,-5.2181,-5.2181,-5.2182,-5.2182,-5.1896,-5.1927,-5.2002,-5.207,-5.2114,-5.2171,-5.2215,-5.2258,-5.2305,-5.2299,-5.2299,-5.2277,-5.2094,-5.2046,-5.219,-5.2189,-5.2187,-5.2187,-5.2186,-5.2104,-5.2058,-5.2173,-5.2218,-5.2297,-5.2371,-5.2373,-5.246,-5.2496,-5.2539,-5.2511,-5.2376,-5.2363,-5.2348,-5.2308,-5.2511,-5.2511,-5.2511,-5.2511,-5.2212,-5.2207,-5.2325,-5.2395,-5.2464,-5.2477,-5.2607,-5.2642,-5.2671,-5.2693,-5.2665,-5.2614,-5.2599,-5.2594,-5.2574,-5.2536,-5.2793,-5.2793,-5.2794,-5.2339,-5.2341,-5.245,-5.2479,-5.2542,-5.2595,-5.2716,-5.2796,-5.282,-5.2805,-5.271,-5.2698,-5.2615,-5.2588,-5.2567,-5.2536,-5.2467,0,0]},{"header":{"parameterUnit":"m.s-1","parameterCategory":1,"la1":30.2992,"la2":30.254,"lo1":-89.0895,"lo2":-89.0443,"dy":0.0025,"dx":0.0025,"nx":19,"ny":19,"refTime":"2026-04-02T09:00:00:Z","depth":0,"parameterNumber":3,"parameterNumberName":"V-component_of_WINDS"},"data":[0,0,0,4.0061,4.0063,4.0156,4.0156,4.0277,4.0278,0,0,0,0,0,0,0,0,0,0,0,4.0035,4.0036,4.006,4.0063,4.0156,4.0156,4.0277,4.0278,0,0,0,0,0,0,0,0,0,0,0,4.0035,4.0036,4.0037,4.0063,4.0156,4.0156,4.0276,4.0205,0,0,0,0,0,0,0,0,0,0,4.0114,4.0093,4.0036,4.0037,4.0064,4.0156,4.0156,4.0202,4.021,4.0236,0,4.0261,0,4.0272,4.0286,4.0287,0,0,0,4.006,4.0087,4.011,4.0037,4.0065,4.0156,4.0113,4.0206,4.0215,4.0246,4.0263,4.0267,4.0274,4.0287,4.0288,4.0452,4.0453,0,0,4.0055,4.0053,4.0104,4.0116,4.0104,4.011,4.0116,4.0211,4.0228,4.0263,4.027,4.0276,4.0288,4.0289,4.0451,4.0452,0,0,0,4.0042,4.0049,4.007,4.0111,4.0128,4.0113,4.012,4.0224,4.0231,4.0271,4.0277,4.0289,4.029,4.045,4.0452,4.0495,0,0,0,4.0039,4.0041,4.0068,4.0067,4.0127,4.0178,4.013,4.0225,4.0236,4.0277,4.0289,4.0291,4.0449,4.0451,4.0491,4.0515,0,0,0,4.0028,4.004,4.0055,4.0067,4.0107,4.0176,4.0189,4.0227,4.0239,4.0287,4.0292,4.0449,4.0451,4.0488,4.051,4.0559,0,0,0,4.0016,4.0089,4.0055,4.014,4.0107,4.0203,4.0188,4.0259,4.0305,4.0289,4.045,4.0452,4.0487,4.0507,4.0555,4.06,4.0618,0,0,4.0107,4.01,4.015,4.0123,4.0225,4.0188,4.0296,4.0339,4.0344,4.0415,4.042,4.0492,4.051,4.0558,4.0719,4.0734,0,0,0,4.0178,4.0214,4.0242,4.0287,4.0323,4.0356,4.0383,4.04,4.0461,4.0381,4.0523,4.0533,4.0562,4.0583,4.0595,4.062,4.0461,4.0461,4.0461,4.0302,4.0308,4.0392,4.041,4.0453,4.0483,4.0518,4.0545,4.0535,4.0569,4.059,4.0687,4.0712,4.0721,4.0747,4.0613,4.0614,4.0614,4.0614,4.0437,4.0489,4.0479,4.0556,4.0562,4.0626,4.0657,4.0649,4.0709,4.0671,4.0696,4.0655,4.0737,4.076,4.0617,4.0617,4.0616,4.0616,4.0616,4.0519,4.0546,4.0566,4.0634,4.0685,4.07,4.076,4.0761,4.0763,4.0788,4.0812,4.0811,4.0811,4.08,4.08,4.08,4.0801,4.0801,4.0801,4.0597,4.0619,4.067,4.0718,4.0748,4.0788,4.082,4.0849,4.0882,4.0879,4.0879,4.0867,4.0744,4.0714,4.0806,4.0805,4.0805,4.0804,4.0804,4.0732,4.0703,4.0782,4.0813,4.0869,4.0921,4.0924,4.0984,4.1009,4.1038,4.1022,4.0931,4.0923,4.0913,4.0888,4.102,4.102,4.102,4.102,4.0802,4.0799,4.0882,4.0932,4.0981,4.0992,4.1081,4.1107,4.1128,4.1144,4.1125,4.1092,4.1082,4.108,4.1066,4.1043,4.1212,4.1212,4.1212,4.0886,4.0889,4.0965,4.0988,4.1033,4.1071,4.1156,4.1212,4.123,4.122,4.1156,4.1148,4.1094,4.1076,4.1064,4.1043,4.1,0,0]}]]